Home > Time Zones > World Clock > Weather > China > Hefei > Past weeks

Flag for China Weather past 2 weeks in Hefei, Anhui, China

Now
77 °F

Sunny.


Feels Like: 78 °F
Forecast: 59 / 81 °F
Wind: 1 mph from North

Location: Hefei Airport

Current Time: Apr 25, 2015 at 10:36:54 AM

Latest Report: Apr 25, 2015 at 10:00 AM


Visibility: 10 mi

Pressure: 30.15 "Hg

Humidity: 44%

Dew point: 54 °F

Location of HefeiLocation

Historic Weather in Hefei — Graph

°F

Hefei temperature yesterday

Maximum temperature yesterday: 81 °F (at 2:00 PM)
Minimum temperature yesterday: 63 °F (at 6:00 AM)
Average temperature yesterday: 70 °F

Past Weeks' High & Low Weather Summary

 TemperatureHumidityPressure
High82 °F (Apr 23, 2:00 PM)100% (Apr 19, 4:00 AM)30.27 "Hg (Apr 19, 4:00 AM)
Low43 °F (Apr 13, 4:00 AM)25% (Apr 23, 2:00 PM)29.62 "Hg (Apr 18, 4:00 PM)
Average62 °F66%30.01 "Hg
* Reported Apr 10 9:00 AM — Apr 25 9:00 AM, Hefei, Weather by CustomWeather, © 2015

Note: Actual official high and low records may vary slightly from our data, if they occured in-between our weather recording intervals... More about our weather records

Advertising

Hefei weather history for previous 24 hours

 ConditionsComfort  
Time TempWeatherWind HumidityBarometerVisibility
9:00 AM
Sat, Apr 25
73 °FClear.1 mph53%30.18 "Hg5 mi
8:00 AM70 °FHaze.1 mph64%30.15 "Hg2 mi
7:00 AM63 °FFog.1 mph83%30.15 "Hg2 mi
6:00 AM59 °FFog.1 mph88%30.12 "Hg1 mi
5:00 AM57 °FFog.1 mph94%30.12 "Hg1 mi
4:00 AM59 °FFog.No wind94%30.09 "Hg2 mi
3:00 AM59 °FFog.3 mph94%30.09 "Hg1 mi
2:00 AM61 °FFog.1 mph88%30.09 "Hg2 mi
1:00 AM64 °FFog.3 mph73%30.12 "Hg3 mi
12:00 AM63 °FFog.1 mph83%30.12 "Hg3 mi
11:00 PM
Fri, Apr 24
63 °FFog.1 mph88%30.12 "Hg3 mi
10:00 PM64 °FClear.1 mph78%30.12 "Hg4 mi
9:00 PM68 °FClear.3 mph64%30.12 "Hg10 mi
8:00 PM70 °FClear.3 mph53%30.12 "Hg10 mi
7:00 PM73 °FClear.6 mph44%30.09 "Hg10 mi
6:00 PM77 °FSunny.6 mph36%30.09 "Hg10 mi
5:00 PM79 °FSunny.3 mph28%30.07 "Hg10 mi
4:00 PM81 °FPassing clouds.6 mph30%30.07 "HgN/A
3:00 PM81 °FPassing clouds.8 mph30%30.09 "HgN/A
2:00 PM81 °FPassing clouds.8 mph34%30.09 "HgN/A
1:00 PM79 °FPassing clouds.6 mph42%30.12 "HgN/A
12:00 PM77 °FPassing clouds.6 mph51%30.12 "HgN/A
11:00 AM73 °FClear.3 mph61%30.15 "Hg4 mi
10:00 AM70 °FHaze.3 mph69%30.12 "Hg3 mi
Weather by CustomWeather, © 2015

See weather overviewHow to use our weather pages